PAL2348 RPVP-RPVM

Flight info

Callsign PAL2348
Flight time N/A
Altitude 33000
Route SAIRA1W SAIRA W291 KALAH Z151 TADAG TADAG3P
Aircraft A320/M-SDE3FGHIRWY/LB1

Departure

Time 2026-05-07 16:25
Airport Puerto Princesa International Airport / PAF Antonio Bautista Air Base (RPVP)

Arrival

Time N/A
Airport Mactan Cebu International Airport (RPVM)
Time Latitude Longitude Altitude Speed Heading
2026-05-07 15:46 9.74365 118.75907 47 ft 0 kts
2026-05-07 16:17 9.74354 118.75907 47 ft 4 kts
2026-05-07 16:17 9.74328 118.75901 42 ft 4 kts 25°
2026-05-07 16:17 9.74308 118.75886 44 ft 4 kts 74°
2026-05-07 16:17 9.74306 118.75877 44 ft 1 kts 92°
2026-05-07 16:20 9.74306 118.75887 44 ft 3 kts 92°
2026-05-07 16:21 9.74305 118.75903 45 ft 6 kts 92°
2026-05-07 16:21 9.74293 118.75969 45 ft 5 kts 115°
2026-05-07 16:21 9.74285 118.75987 41 ft 8 kts 115°
2026-05-07 16:21 9.74238 118.76064 43 ft 15 kts 137°
2026-05-07 16:22 9.74212 118.76178 40 ft 20 kts 98°
2026-05-07 16:22 9.74201 118.76329 39 ft 23 kts 93°
2026-05-07 16:22 9.74195 118.76505 36 ft 26 kts 92°
2026-05-07 16:22 9.74186 118.76693 33 ft 26 kts 93°
2026-05-07 16:23 9.74186 118.76885 29 ft 29 kts 81°
2026-05-07 16:23 9.74186 118.76981 28 ft 11 kts 188°
2026-05-07 16:23 9.74169 118.76942 28 ft 0 kts 269°
2026-05-07 16:24 9.74169 118.76913 28 ft 25 kts 270°
2026-05-07 16:24 9.74190 118.76432 37 ft 108 kts 272°
2026-05-07 16:24 9.74230 118.75448 58 ft 169 kts 272°
2026-05-07 16:24 9.74289 118.74141 442 ft 197 kts 274°
2026-05-07 16:25 9.74375 118.72739 1413 ft 197 kts 274°
2026-05-07 16:25 9.74461 118.71451 2204 ft 168 kts 275°
2026-05-07 16:25 9.74312 118.70271 2298 ft 175 kts 249°
2026-05-07 16:25 9.73622 118.69174 2440 ft 202 kts 220°
2026-05-07 16:26 9.72320 118.68429 2914 ft 227 kts 193°
2026-05-07 16:26 9.70782 118.68307 3869 ft 216 kts 166°
2026-05-07 16:26 9.69432 118.68813 4839 ft 202 kts 140°
2026-05-07 16:26 9.68746 118.69433 5365 ft 199 kts 123°
2026-05-07 16:27 9.67852 118.71202 5576 ft 242 kts 99°
2026-05-07 16:27 9.67911 118.72992 5998 ft 260 kts 78°
2026-05-07 16:27 9.68330 118.74788 6798 ft 264 kts 76°
2026-05-07 16:27 9.68718 118.76623 7600 ft 268 kts 79°
2026-05-07 16:28 9.69005 118.78501 8401 ft 271 kts 82°
2026-05-07 16:28 9.69209 118.80390 9185 ft 275 kts 84°
2026-05-07 16:28 9.69372 118.82341 9948 ft 279 kts 85°
2026-05-07 16:28 9.69520 118.84318 10691 ft 282 kts 85°
2026-05-07 16:29 9.69664 118.86313 11419 ft 285 kts 85°
2026-05-07 16:29 9.69812 118.88331 12076 ft 292 kts 85°
2026-05-07 16:29 9.69970 118.90461 12294 ft 313 kts 85°
2026-05-07 16:29 9.70142 118.92739 12483 ft 334 kts 85°
2026-05-07 16:30 9.70321 118.95124 12998 ft 341 kts 85°
2026-05-07 16:30 9.70499 118.97504 13660 ft 345 kts 85°
2026-05-07 16:30 9.70682 118.99943 14245 ft 348 kts 85°
2026-05-07 16:30 9.70866 119.02401 14836 ft 351 kts 85°
2026-05-07 16:31 9.71051 119.04879 15415 ft 354 kts 85°
2026-05-07 16:31 9.71238 119.07381 15978 ft 357 kts 85°
2026-05-07 16:31 9.71426 119.09905 16558 ft 360 kts 85°
2026-05-07 16:31 9.71614 119.12451 17114 ft 363 kts 85°
2026-05-07 16:32 9.71805 119.15019 17674 ft 366 kts 85°
2026-05-07 16:32 9.71997 119.17603 18192 ft 370 kts 85°
2026-05-07 16:32 9.72192 119.20215 18644 ft 373 kts 85°
2026-05-07 16:32 9.72388 119.22852 19098 ft 376 kts 85°
2026-05-07 16:33 9.72586 119.25507 19532 ft 380 kts 85°
2026-05-07 16:33 9.72786 119.28192 19953 ft 383 kts 85°
2026-05-07 16:33 9.72985 119.30869 20416 ft 386 kts 85°
2026-05-07 16:33 9.73188 119.33592 20850 ft 389 kts 85°
2026-05-07 16:34 9.73392 119.36342 21300 ft 392 kts 85°
2026-05-07 16:34 9.73597 119.39108 21749 ft 395 kts 85°
2026-05-07 16:34 9.73804 119.41900 22145 ft 399 kts 85°
2026-05-07 16:34 9.73927 119.44717 22582 ft 401 kts 89°
2026-05-07 16:35 9.73911 119.47557 23007 ft 404 kts 89°
2026-05-07 16:35 9.73903 119.50426 23364 ft 408 kts 89°
2026-05-07 16:35 9.73897 119.53272 23765 ft 409 kts 89°
2026-05-07 16:35 9.73892 119.56174 24090 ft 413 kts 89°
2026-05-07 16:36 9.73887 119.59103 24370 ft 417 kts 89°
2026-05-07 16:36 9.73879 119.62041 24806 ft 416 kts 89°
2026-05-07 16:36 9.73871 119.64990 25112 ft 420 kts 89°
2026-05-07 16:36 9.73863 119.67978 25343 ft 425 kts 89°
2026-05-07 16:37 9.73854 119.70975 25754 ft 425 kts 89°
2026-05-07 16:37 9.73846 119.73954 25958 ft 431 kts 89°
2026-05-07 16:37 9.73838 119.77007 26262 ft 433 kts 89°
2026-05-07 16:37 9.73829 119.80064 26586 ft 435 kts 90°
2026-05-07 16:38 9.73820 119.83152 26795 ft 440 kts 90°
2026-05-07 16:38 9.73810 119.86257 27172 ft 440 kts 90°
2026-05-07 16:38 9.73800 119.89370 27391 ft 445 kts 90°
2026-05-07 16:38 9.73789 119.92521 27657 ft 447 kts 90°
2026-05-07 16:39 9.73778 119.95684 27916 ft 450 kts 90°
2026-05-07 16:39 9.73767 119.98877 28155 ft 453 kts 90°
2026-05-07 16:39 9.73755 120.02077 28424 ft 456 kts 90°
2026-05-07 16:39 9.73744 120.05300 28650 ft 459 kts 90°
2026-05-07 16:40 9.73731 120.08497 28893 ft 461 kts 90°
2026-05-07 16:40 9.73718 120.11760 29136 ft 464 kts 90°
2026-05-07 16:40 9.73705 120.15044 29373 ft 467 kts 90°
2026-05-07 16:40 9.73692 120.18342 29604 ft 470 kts 90°
2026-05-07 16:41 9.73678 120.21674 29872 ft 472 kts 90°
2026-05-07 16:41 9.73664 120.25009 30052 ft 475 kts 90°
2026-05-07 16:41 9.73649 120.28368 30279 ft 476 kts 90°
2026-05-07 16:41 9.73634 120.31731 30532 ft 478 kts 90°
2026-05-07 16:42 9.73618 120.35118 30704 ft 481 kts 90°
2026-05-07 16:42 9.73602 120.38471 30980 ft 482 kts 90°
2026-05-07 16:42 9.73587 120.41881 31193 ft 484 kts 90°
2026-05-07 16:42 9.73570 120.45287 31529 ft 482 kts 90°
2026-05-07 16:43 9.73553 120.48684 31824 ft 483 kts 91°
2026-05-07 16:43 9.73536 120.52100 32043 ft 484 kts 90°
2026-05-07 16:43 9.73518 120.55502 32409 ft 482 kts 91°
2026-05-07 16:43 9.73501 120.58872 32614 ft 483 kts 91°
2026-05-07 16:44 9.73482 120.62283 32817 ft 482 kts 91°
2026-05-07 16:44 9.73831 120.69078 32825 ft 482 kts 81°
2026-05-07 16:45 9.74700 120.74661 32826 ft 484 kts 81°
2026-05-07 16:45 9.75890 120.82486 32821 ft 483 kts 82°
2026-05-07 16:46 9.76744 120.88113 32825 ft 482 kts 82°
2026-05-07 16:46 9.77763 120.94829 32823 ft 481 kts 82°
2026-05-07 16:47 9.78772 121.01479 32823 ft 479 kts 82°
2026-05-07 16:47 9.79783 121.08154 32825 ft 479 kts 82°
2026-05-07 16:48 9.80794 121.14838 32824 ft 479 kts 82°
2026-05-07 16:48 9.81804 121.21523 32823 ft 479 kts 82°
2026-05-07 16:49 9.82815 121.28225 32827 ft 483 kts 82°
2026-05-07 16:49 9.83833 121.34982 32827 ft 485 kts 82°
2026-05-07 16:50 9.84848 121.41725 32823 ft 484 kts 82°
2026-05-07 16:50 9.85853 121.48413 32825 ft 483 kts 82°
2026-05-07 16:51 9.86862 121.55135 32826 ft 483 kts 82°
2026-05-07 16:51 9.87872 121.61859 32824 ft 482 kts 82°
2026-05-07 16:52 9.88879 121.68578 32823 ft 481 kts 82°
2026-05-07 16:52 9.89884 121.75290 32827 ft 480 kts 82°
2026-05-07 16:53 9.90889 121.82012 32824 ft 479 kts 82°
2026-05-07 16:53 9.91877 121.88627 32819 ft 475 kts 82°
2026-05-07 16:54 9.92871 121.95295 32825 ft 477 kts 82°
2026-05-07 16:54 9.93854 122.01914 32827 ft 478 kts 82°
2026-05-07 16:55 9.94839 122.08576 32824 ft 478 kts 82°
2026-05-07 16:55 9.95825 122.15247 32829 ft 478 kts 82°
2026-05-07 16:56 9.96808 122.21906 32826 ft 479 kts 82°
2026-05-07 16:56 9.98283 122.31917 32828 ft 478 kts 82°